• In France
  • List of Countries
  • For 7 days
  • Water Temperature
  • Satellite Maps
  • Weather Map
  • Weather Widgets
  • user-avatar
    Login

    Hourly Weather Kavarna

    Today, 24 September, Sunday

    Time Temperature Precipitation Wind Pressure Humidity
    00:00 +17°C° 0 mm 5 mps 763 mmHg 52%
    01:00 +16°C° 0 mm 5 mps 763 mmHg 53%
    02:00 +15°C° 0 mm 5 mps 763 mmHg 55%
    03:00 +15°C° 0 mm 5 mps 763 mmHg 56%
    04:00 +15°C° 0 mm 5 mps 763 mmHg 58%
    05:00 +14°C° 0 mm 5 mps 763 mmHg 60%
    06:00 +15°C° 0 mm 5 mps 763 mmHg 56%
    07:00 +16°C° 0 mm 5 mps 763 mmHg 53%
    08:00 +17°C° 0 mm 5 mps 763 mmHg 47%
    09:00 +20°C° 0 mm 5 mps 763 mmHg 43%
    10:00 +21°C° 0 mm 5 mps 763 mmHg 38%
    11:00 +23°C° 0 mm 4 mps 764 mmHg 34%
    12:00 +25°C° 0 mm 4 mps 763 mmHg 33%
    13:00 +25°C° 0 mm 4 mps 763 mmHg 33%
    14:00 +26°C° 0 mm 3 mps 763 mmHg 32%
    15:00 +26°C° 0 mm 4 mps 763 mmHg 34%
    16:00 +25°C° 0 mm 4 mps 763 mmHg 36%
    17:00 +25°C° 0 mm 4 mps 763 mmHg 38%
    18:00 +22°C° 0 mm 4 mps 763 mmHg 44%
    19:00 +21°C° 0 mm 4 mps 763 mmHg 50%
    20:00 +20°C° 0 mm 3 mps 764 mmHg 57%
    21:00 +19°C° 0 mm 3 mps 764 mmHg 59%
    22:00 +19°C° 0 mm 3 mps 764 mmHg 62%
    23:00 +19°C° 0 mm 3 mps 764 mmHg 64%

    Tomorrow, 25 September, Monday

    Time Temperature Precipitation Wind Pressure Humidity
    00:00 +18°C° 0 mm 2 mps 764 mmHg 66%
    01:00 +18°C° 0 mm 2 mps 764 mmHg 68%
    02:00 +19°C° 0 mm 1 mps 764 mmHg 70%
    03:00 +18°C° 0 mm 1 mps 764 mmHg 71%
    04:00 +17°C° 0 mm 2 mps 764 mmHg 71%
    05:00 +17°C° 0 mm 2 mps 764 mmHg 71%
    06:00 +18°C° 0 mm 3 mps 764 mmHg 67%
    07:00 +19°C° 0 mm 3 mps 764 mmHg 63%
    08:00 +20°C° 0 mm 4 mps 764 mmHg 58%
    09:00 +22°C° 0 mm 4 mps 764 mmHg 55%
    10:00 +23°C° 0 mm 5 mps 764 mmHg 51%
    11:00 +24°C° 0 mm 6 mps 764 mmHg 47%
    12:00 +24°C° 0 mm 6 mps 764 mmHg 48%
    13:00 +24°C° 0 mm 6 mps 764 mmHg 49%
    14:00 +24°C° 0 mm 6 mps 763 mmHg 49%
    15:00 +24°C° 0 mm 7 mps 763 mmHg 53%
    16:00 +23°C° 0 mm 7 mps 763 mmHg 57%
    17:00 +22°C° 0 mm 7 mps 763 mmHg 60%
    18:00 +22°C° 0 mm 7 mps 763 mmHg 66%
    19:00 +21°C° 0 mm 6 mps 763 mmHg 72%
    20:00 +20°C° 0 mm 6 mps 763 mmHg 78%
    21:00 +19°C° 0 mm 6 mps 763 mmHg 80%
    22:00 +19°C° 0 mm 6 mps 763 mmHg 82%
    23:00 +19°C° 0 mm 5 mps 763 mmHg 84%

    Day after tomorrow, 26 September, Tuesday

    Time Temperature Precipitation Wind Pressure Humidity
    00:00 +17°C° 0 mm 5 mps 763 mmHg 84%
    01:00 +17°C° 0 mm 5 mps 762 mmHg 85%
    02:00 +17°C° 0 mm 5 mps 762 mmHg 85%
    03:00 +17°C° 0 mm 5 mps 762 mmHg 85%
    04:00 +17°C° 0 mm 5 mps 762 mmHg 85%
    05:00 +17°C° 0 mm 6 mps 762 mmHg 85%
    06:00 +19°C° 0 mm 6 mps 762 mmHg 80%
    07:00 +20°C° 0 mm 6 mps 762 mmHg 74%
    08:00 +22°C° 0 mm 6 mps 762 mmHg 69%
    09:00 +23°C° 0.3 mm 7 mps 762 mmHg 66%
    10:00 +23°C° 0.3 mm 7 mps 762 mmHg 63%
    11:00 +24°C° 0.3 mm 8 mps 762 mmHg 60%
    12:00 +24°C° 0.4 mm 8 mps 763 mmHg 61%
    13:00 +23°C° 0.4 mm 8 mps 763 mmHg 62%
    14:00 +23°C° 0.4 mm 9 mps 763 mmHg 62%
    15:00 +22°C° 0 mm 9 mps 763 mmHg 63%
    16:00 +22°C° 0 mm 9 mps 763 mmHg 63%
    17:00 +21°C° 0 mm 9 mps 763 mmHg 64%
    18:00 +21°C° 0 mm 9 mps 763 mmHg 65%
    19:00 +20°C° 0 mm 8 mps 764 mmHg 67%
    20:00 +20°C° 0 mm 8 mps 764 mmHg 68%
    21:00 +18°C° 0 mm 8 mps 764 mmHg 68%
    22:00 +18°C° 0 mm 8 mps 764 mmHg 68%
    23:00 +18°C° 0 mm 8 mps 764 mmHg 67%

    27 September, Wednesday

    Time Temperature Precipitation Wind Pressure Humidity
    00:00 +18°C° 0 mm 8 mps 764 mmHg 68%
    01:00 +17°C° 0 mm 8 mps 764 mmHg 68%
    02:00 +17°C° 0 mm 7 mps 764 mmHg 69%
    03:00 +17°C° 0 mm 7 mps 765 mmHg 69%
    04:00 +16°C° 0 mm 7 mps 765 mmHg 69%
    05:00 +16°C° 0 mm 7 mps 765 mmHg 69%
    06:00 +17°C° 0 mm 8 mps 765 mmHg 67%
    07:00 +18°C° 0 mm 9 mps 766 mmHg 65%
    08:00 +19°C° 0 mm 9 mps 766 mmHg 62%
    09:00 +19°C° 0 mm 9 mps 766 mmHg 61%
    10:00 +19°C° 0 mm 10 mps 767 mmHg 60%
    11:00 +19°C° 0 mm 10 mps 767 mmHg 58%
    12:00 +19°C° 0.1 mm 10 mps 767 mmHg 58%
    13:00 +19°C° 0.1 mm 10 mps 767 mmHg 58%
    14:00 +19°C° 0.1 mm 10 mps 767 mmHg 58%
    15:00 +19°C° 0.1 mm 10 mps 767 mmHg 59%
    16:00 +18°C° 0.1 mm 9 mps 767 mmHg 60%
    17:00 +18°C° 0.1 mm 9 mps 768 mmHg 61%
    18:00 +17°C° 0.1 mm 9 mps 768 mmHg 63%
    19:00 +16°C° 0.1 mm 8 mps 768 mmHg 65%
    20:00 +16°C° 0.1 mm 8 mps 768 mmHg 67%
    21:00 +16°C° 0.1 mm 8 mps 768 mmHg 67%
    22:00 +15°C° 0.1 mm 7 mps 768 mmHg 66%
    23:00 +15°C° 0.1 mm 7 mps 768 mmHg 66%

    28 September, Thursday

    Time Temperature Precipitation Wind Pressure Humidity
    00:00 +15°C° 0.1 mm 7 mps 768 mmHg 66%
    01:00 +15°C° 0.1 mm 7 mps 768 mmHg 66%
    02:00 +15°C° 0.1 mm 7 mps 768 mmHg 66%
    03:00 +15°C° 0.1 mm 7 mps 768 mmHg 67%
    04:00 +15°C° 0.1 mm 8 mps 768 mmHg 68%
    05:00 +13°C° 0.1 mm 8 mps 768 mmHg 69%
    06:00 +15°C° 0.1 mm 8 mps 768 mmHg 68%
    07:00 +15°C° 0.1 mm 9 mps 768 mmHg 67%
    08:00 +15°C° 0.1 mm 9 mps 768 mmHg 65%
    09:00 +16°C° 0.2 mm 9 mps 769 mmHg 65%
    10:00 +16°C° 0.2 mm 9 mps 769 mmHg 65%
    11:00 +16°C° 0.2 mm 9 mps 769 mmHg 64%
    12:00 +16°C° 0.1 mm 9 mps 769 mmHg 64%
    13:00 +16°C° 0.1 mm 9 mps 768 mmHg 64%
    14:00 +16°C° 0.1 mm 9 mps 768 mmHg 63%
    15:00 +16°C° 0.1 mm 9 mps 768 mmHg 62%
    16:00 +16°C° 0.1 mm 9 mps 768 mmHg 62%
    17:00 +16°C° 0.1 mm 9 mps 768 mmHg 61%
    18:00 +15°C° 0.1 mm 9 mps 768 mmHg 63%
    19:00 +13°C° 0.1 mm 9 mps 769 mmHg 65%
    20:00 +12°C° 0.1 mm 8 mps 769 mmHg 68%
    21:00 +12°C° 0.1 mm 8 mps 769 mmHg 66%
    22:00 +12°C° 0.1 mm 8 mps 768 mmHg 65%
    23:00 +12°C° 0.1 mm 8 mps 768 mmHg 64%

    29 September, Friday

    Time Temperature Precipitation Wind Pressure Humidity
    00:00 +12°C° 0.1 mm 8 mps 768 mmHg 63%
    01:00 +12°C° 0.1 mm 8 mps 768 mmHg 62%
    02:00 +12°C° 0.1 mm 8 mps 767 mmHg 61%
    03:00 +12°C° 0.1 mm 9 mps 767 mmHg 62%
    04:00 +13°C° 0.1 mm 9 mps 767 mmHg 62%
    05:00 +13°C° 0.1 mm 9 mps 767 mmHg 62%
    06:00 +13°C° 0.2 mm 9 mps 767 mmHg 62%
    07:00 +13°C° 0.2 mm 9 mps 767 mmHg 62%
    08:00 +14°C° 0.2 mm 10 mps 767 mmHg 63%
    09:00 +14°C° 0.3 mm 10 mps 767 mmHg 62%
    10:00 +14°C° 0.3 mm 10 mps 767 mmHg 61%
    11:00 +14°C° 0.3 mm 10 mps 767 mmHg 61%
    12:00 +16°C° 0.2 mm 10 mps 767 mmHg 57%
    13:00 +16°C° 0.2 mm 11 mps 766 mmHg 54%
    14:00 +17°C° 0.2 mm 11 mps 766 mmHg 50%
    15:00 +17°C° 0.1 mm 10 mps 766 mmHg 51%
    16:00 +16°C° 0.1 mm 10 mps 766 mmHg 51%
    17:00 +16°C° 0.1 mm 10 mps 766 mmHg 51%
    18:00 +15°C° 0.1 mm 9 mps 766 mmHg 55%
    19:00 +13°C° 0.1 mm 9 mps 766 mmHg 58%
    20:00 +12°C° 0.1 mm 8 mps 766 mmHg 61%
    21:00 +12°C° 0.1 mm 8 mps 765 mmHg 60%
    22:00 +12°C° 0.1 mm 8 mps 765 mmHg 59%
    23:00 +11°C° 0.1 mm 8 mps 765 mmHg 57%
    Show more